Previsão horária em Aalten

Hoje, 12 Abril, Segunda-feira

Tempo Temperatura Precipitação Vento Pressão Humidade
00:00 -1°C° 0 mm 2 m/s 763 mmHg 85%
01:00 -1°C° 0 mm 2 m/s 763 mmHg 86%
02:00 -1°C° 0 mm 2 m/s 764 mmHg 86%
03:00 -1°C° 0 mm 2 m/s 764 mmHg 86%
04:00 -1°C° 0 mm 2 m/s 764 mmHg 85%
05:00 +1°C° 0 mm 2 m/s 765 mmHg 84%
06:00 +1°C° 0 mm 2 m/s 765 mmHg 83%
07:00 +2°C° 0.1 mm 3 m/s 765 mmHg 74%
08:00 +3°C° 0.1 mm 3 m/s 766 mmHg 65%
09:00 +5°C° 0.1 mm 4 m/s 766 mmHg 56%
10:00 +5°C° 0.3 mm 4 m/s 766 mmHg 55%
11:00 +6°C° 0.3 mm 4 m/s 766 mmHg 53%
12:00 +6°C° 0.3 mm 5 m/s 766 mmHg 51%
13:00 +6°C° 0.2 mm 5 m/s 766 mmHg 50%
14:00 +6°C° 0.2 mm 5 m/s 766 mmHg 50%
15:00 +6°C° 0.2 mm 5 m/s 766 mmHg 49%
16:00 +5°C° 0.1 mm 4 m/s 767 mmHg 55%
17:00 +4°C° 0.1 mm 4 m/s 767 mmHg 61%
18:00 +3°C° 0.1 mm 3 m/s 767 mmHg 67%
19:00 +2°C° 0 mm 3 m/s 768 mmHg 71%
20:00 +1°C° 0 mm 3 m/s 768 mmHg 75%
21:00 +1°C° 0 mm 2 m/s 769 mmHg 79%
22:00 -1°C° 0 mm 2 m/s 769 mmHg 81%
23:00 -1°C° 0 mm 2 m/s 769 mmHg 84%

Amanhã, 13 Abril, Terça-feira

Tempo Temperatura Precipitação Vento Pressão Humidade
00:00 -1°C° 0 mm 2 m/s 769 mmHg 86%
01:00 -1°C° 0 mm 2 m/s 769 mmHg 88%
02:00 -1°C° 0 mm 2 m/s 769 mmHg 90%
03:00 -1°C° 0 mm 2 m/s 770 mmHg 91%
04:00 -1°C° 0 mm 2 m/s 770 mmHg 90%
05:00 +1°C° 0 mm 2 m/s 770 mmHg 88%
06:00 +1°C° 0 mm 2 m/s 771 mmHg 87%
07:00 +2°C° 0 mm 3 m/s 771 mmHg 77%
08:00 +4°C° 0 mm 3 m/s 771 mmHg 67%
09:00 +6°C° 0 mm 4 m/s 771 mmHg 57%
10:00 +7°C° 0.1 mm 4 m/s 771 mmHg 52%
11:00 +7°C° 0.1 mm 4 m/s 771 mmHg 48%
12:00 +8°C° 0.1 mm 4 m/s 771 mmHg 43%
13:00 +8°C° 0 mm 4 m/s 770 mmHg 43%
14:00 +8°C° 0 mm 4 m/s 770 mmHg 44%
15:00 +8°C° 0 mm 4 m/s 770 mmHg 45%
16:00 +6°C° 0.1 mm 4 m/s 770 mmHg 52%
17:00 +5°C° 0.1 mm 3 m/s 770 mmHg 59%
18:00 +4°C° 0.1 mm 3 m/s 770 mmHg 67%
19:00 +3°C° 0 mm 3 m/s 771 mmHg 70%
20:00 +3°C° 0 mm 2 m/s 771 mmHg 74%
21:00 +2°C° 0 mm 2 m/s 771 mmHg 77%
22:00 +2°C° 0 mm 2 m/s 771 mmHg 80%
23:00 +1°C° 0 mm 2 m/s 771 mmHg 82%

Depois de amanhã, 14 Abril, Quarta-feira

Tempo Temperatura Precipitação Vento Pressão Humidade
00:00 +2°C° 0 mm 1 m/s 771 mmHg 84%
01:00 +1°C° 0 mm 1 m/s 770 mmHg 86%
02:00 +1°C° 0 mm 1 m/s 770 mmHg 87%
03:00 +1°C° 0 mm 1 m/s 770 mmHg 89%
04:00 +1°C° 0 mm 1 m/s 770 mmHg 86%
05:00 +2°C° 0 mm 1 m/s 770 mmHg 84%
06:00 +3°C° 0 mm 1 m/s 770 mmHg 82%
07:00 +4°C° 0.1 mm 1 m/s 770 mmHg 74%
08:00 +5°C° 0.1 mm 2 m/s 770 mmHg 66%
09:00 +6°C° 0.1 mm 2 m/s 770 mmHg 58%
10:00 +7°C° 0.1 mm 2 m/s 770 mmHg 55%
11:00 +8°C° 0.1 mm 3 m/s 769 mmHg 51%
12:00 +8°C° 0.1 mm 3 m/s 769 mmHg 48%
13:00 +8°C° 0.3 mm 3 m/s 769 mmHg 51%
14:00 +7°C° 0.3 mm 4 m/s 769 mmHg 54%
15:00 +7°C° 0.3 mm 4 m/s 768 mmHg 58%
16:00 +6°C° 0.2 mm 4 m/s 768 mmHg 61%
17:00 +5°C° 0.2 mm 4 m/s 768 mmHg 65%
18:00 +4°C° 0.2 mm 3 m/s 769 mmHg 69%
19:00 +3°C° 0 mm 3 m/s 769 mmHg 74%
20:00 +2°C° 0 mm 3 m/s 769 mmHg 79%
21:00 +1°C° 0 mm 2 m/s 769 mmHg 84%
22:00 +1°C° 0 mm 2 m/s 769 mmHg 86%
23:00 -1°C° 0 mm 2 m/s 769 mmHg 87%

15 Abril, Quinta-feira

Tempo Temperatura Precipitação Vento Pressão Humidade
00:00 -1°C° 0 mm 2 m/s 769 mmHg 88%
01:00 -1°C° 0 mm 2 m/s 769 mmHg 89%
02:00 +1°C° 0 mm 1 m/s 769 mmHg 90%
03:00 0°C° 0 mm 1 m/s 769 mmHg 91%
04:00 +1°C° 0 mm 1 m/s 769 mmHg 89%
05:00 +2°C° 0 mm 1 m/s 769 mmHg 87%
06:00 +2°C° 0 mm 1 m/s 769 mmHg 85%
07:00 +3°C° 0 mm 2 m/s 769 mmHg 77%
08:00 +5°C° 0 mm 2 m/s 769 mmHg 68%
09:00 +5°C° 0 mm 3 m/s 769 mmHg 60%
10:00 +7°C° 0.2 mm 3 m/s 769 mmHg 57%
11:00 +8°C° 0.2 mm 3 m/s 768 mmHg 54%
12:00 +7°C° 0.2 mm 4 m/s 768 mmHg 50%
13:00 +8°C° 0.1 mm 4 m/s 768 mmHg 50%
14:00 +8°C° 0.1 mm 4 m/s 768 mmHg 49%
15:00 +8°C° 0.1 mm 5 m/s 767 mmHg 48%
16:00 +7°C° 0.1 mm 4 m/s 767 mmHg 54%
17:00 +6°C° 0.1 mm 4 m/s 767 mmHg 61%
18:00 +5°C° 0.1 mm 3 m/s 767 mmHg 67%
19:00 +4°C° 0 mm 3 m/s 768 mmHg 71%
20:00 +3°C° 0 mm 4 m/s 768 mmHg 75%
21:00 +1°C° 0 mm 4 m/s 768 mmHg 79%
22:00 0°C° 0 mm 4 m/s 768 mmHg 81%
23:00 +1°C° 0 mm 3 m/s 768 mmHg 83%

16 Abril, Sexta-feira

Tempo Temperatura Precipitação Vento Pressão Humidade
00:00 0°C° 0 mm 3 m/s 768 mmHg 85%
01:00 0°C° 0 mm 3 m/s 768 mmHg 85%
02:00 0°C° 0 mm 3 m/s 768 mmHg 84%
03:00 -1°C° 0 mm 3 m/s 768 mmHg 83%
04:00 0°C° 0 mm 3 m/s 768 mmHg 80%
05:00 0°C° 0 mm 3 m/s 768 mmHg 77%
06:00 +1°C° 0 mm 3 m/s 768 mmHg 75%
07:00 +3°C° 0 mm 4 m/s 768 mmHg 67%
08:00 +5°C° 0 mm 4 m/s 768 mmHg 59%
09:00 +6°C° 0 mm 4 m/s 768 mmHg 51%
10:00 +7°C° 0 mm 5 m/s 768 mmHg 50%
11:00 +8°C° 0 mm 5 m/s 768 mmHg 49%
12:00 +9°C° 0 mm 5 m/s 767 mmHg 48%
13:00 +9°C° 0 mm 5 m/s 767 mmHg 47%
14:00 +9°C° 0 mm 5 m/s 767 mmHg 46%
15:00 +10°C° 0 mm 6 m/s 767 mmHg 46%
16:00 +9°C° 0 mm 5 m/s 767 mmHg 52%
17:00 +8°C° 0 mm 4 m/s 767 mmHg 58%
18:00 +7°C° 0 mm 4 m/s 767 mmHg 64%
19:00 +5°C° 0 mm 4 m/s 767 mmHg 69%
20:00 +4°C° 0 mm 3 m/s 767 mmHg 74%
21:00 +3°C° 0 mm 3 m/s 767 mmHg 79%
22:00 +2°C° 0 mm 3 m/s 767 mmHg 80%
23:00 +2°C° 0 mm 3 m/s 767 mmHg 81%

17 Abril, Sábado

Tempo Temperatura Precipitação Vento Pressão Humidade
00:00 +1°C° 0 mm 3 m/s 767 mmHg 83%
01:00 +1°C° 0 mm 3 m/s 767 mmHg 83%
02:00 0°C° 0 mm 3 m/s 767 mmHg 84%
03:00 0°C° 0 mm 3 m/s 767 mmHg 84%
04:00 +1°C° 0 mm 3 m/s 767 mmHg 81%
05:00 +1°C° 0 mm 3 m/s 767 mmHg 79%
06:00 +2°C° 0 mm 3 m/s 767 mmHg 76%
07:00 +3°C° 0 mm 3 m/s 767 mmHg 74%
08:00 +4°C° 0 mm 4 m/s 767 mmHg 71%
09:00 +5°C° 0 mm 4 m/s 767 mmHg 69%
10:00 +5°C° 0 mm 4 m/s 766 mmHg 70%
11:00 +5°C° 0 mm 4 m/s 766 mmHg 71%
12:00 +6°C° 0 mm 4 m/s 766 mmHg 72%
13:00 +6°C° 0 mm 4 m/s 766 mmHg 72%
14:00 +6°C° 0 mm 4 m/s 766 mmHg 72%
15:00 +6°C° 0 mm 4 m/s 765 mmHg 73%
16:00 +7°C° 0 mm 3 m/s 765 mmHg 75%
17:00 +7°C° 0 mm 3 m/s 765 mmHg 78%
18:00 +7°C° 0 mm 2 m/s 765 mmHg 81%
19:00 +6°C° 0 mm 2 m/s 765 mmHg 83%
20:00 +6°C° 0 mm 2 m/s 766 mmHg 84%
21:00 +6°C° 0 mm 2 m/s 766 mmHg 86%
22:00 +6°C° 0 mm 2 m/s 765 mmHg 87%
23:00 +6°C° 0 mm 2 m/s 765 mmHg 88%
Mostrar mais